This is the latest recevied weather packets stored in our database for station/object GW1498. If no packets are shown the sender has not sent any weather packets the latest 10 day(s).
| Time | Temp. | Humidity | Pressure | Rain* | Wind** | Luminosity | Snow |
|---|---|---|---|---|---|---|---|
| 1778153606 | 6.11° C | 97% | 1013.5 hPa | 1.52 mm | - | - | - |
| 1778152513 | 5.56° C | 97% | 1012.8 hPa | 1.52 mm | - | - | - |
| 1778148212 | 6.11° C | 97% | 1012.8 hPa | 1.52 mm | - | - | - |
| 1778146424 | 6.11° C | 97% | 1012.1 hPa | 1.27 mm | - | - | - |
| 1778145310 | 6.67° C | 96% | 1012.5 hPa | 1.27 mm | - | - | - |
| 1778143165 | 6.67° C | 97% | 1012.5 hPa | 1.02 mm | - | - | - |
| 1778141017 | 6.67° C | 97% | 1012.5 hPa | 0.76 mm | - | - | - |
| 1778137390 | 6.67° C | 97% | 1012.5 hPa | 0.51 mm | - | - | - |
| 1778130222 | 7.22° C | 96% | 1013.2 hPa | 0.25 mm | - | - | - |
| 1778120141 | 8.89° C | 96% | 1013.2 hPa | 16.76 mm | - | - | - |
| 1778117970 | 9.44° C | 96% | 1012.5 hPa | 16.26 mm | - | - | - |
| 1778112948 | 10° C | 96% | 1012.1 hPa | 16 mm | - | - | - |
| 1778111675 | 10° C | 96% | 1012.5 hPa | 16 mm | - | - | - |
| 1778105358 | 11.11° C | 96% | 1011.8 hPa | 14.48 mm | - | - | - |
| 1778105023 | 11.11° C | 96% | 1011.8 hPa | 14.48 mm | - | - | - |
| 1778104659 | 11.11° C | 96% | 1011.5 hPa | 14.48 mm | - | - | - |
| 1778102833 | 11.67° C | 96% | 1011.1 hPa | 14.22 mm | - | - | - |
| 1778099591 | 12.22° C | 95% | 1010.8 hPa | 13.97 mm | - | - | - |
| 1778092760 | 13.33° C | 95% | 1010.4 hPa | 13.21 mm | - | - | - |
| 1778085586 | 14.44° C | 95% | 1010.1 hPa | 12.19 mm | - | - | - |
| 1778084869 | 14.44° C | 94% | 1010.1 hPa | 12.19 mm | - | - | - |
| 1778084146 | 14.44° C | 94% | 1010.1 hPa | 12.19 mm | - | - | - |
| 1778082528 | 14.44° C | 94% | 1009.8 hPa | 11.94 mm | - | - | - |
| 1778080174 | 13.89° C | 94% | 1009.4 hPa | 11.94 mm | - | - | - |
| 1778079791 | 13.89° C | 94% | 1009.4 hPa | 11.94 mm | - | - | - |
* Rain since midnight (hover to see other rain measurements)
** Current wind speed in m/s (hover to see current wind gust speed)